Kizahashi Hama_1day,,,,,,,,,,,,,,,,,,,,,,,
TIMESTAMP,Wind_Speed_Avg,Vector Wind_direction_Avg,Wind_Speed_Max,Wind_Speed_TMx,Wind_Dir_TMx,Air_Temp_Avg,Air_Temp_Max,Air_Temp_TMx,Air_Temp_Min,Air_Temp_TMn,Humidity_Avg,Humidity_Max,Humidity_TMx,Humidity_Min,Humidity_TMn,Solar radiation_Avg,PAR_Avg,UV_Avg,Press_hPa_Avg,Press_hPa_Max,Press_hPa_TMx,Press_hPa_Min,Press_hPa_TMn
"(Local time, GMT+3hr)",(m/s),(degreeN),(m/s),"(Local time, GMT+3hr)",(degreeN),(��C),(��C),"(Local time, GMT+3hr)",(��C),"(Local time, GMT+3hr)",(%),(%),"(Local time, GMT+3hr)",(%),"(Local time, GMT+3hr)",(W/m^2),(��mol/m^2/s),(W/m^2),(hPa),(hPa),"(Local time, GMT+3hr)",(hPa),"(Local time, GMT+3hr)"
,,,,,,,,,,,,,,,,,,,,,,,
2014/12/1 0:00,4,283,21.7,2014/11/30 21:59,95,-5,0.5,2014/11/30 20:07,-9.9,2014/11/30 2:11,60,86,2014/11/30 3:41,29,2014/11/30 23:56,342,209,15.1,993,997,2014/11/30 1:35,981,2014/12/1 0:00
2014/12/2 0:00,14,74,40.9,2014/12/1 9:00,96,-0.9,0.2,2014/12/1 17:09,-2.4,2014/12/1 6:09,49,61,2014/12/1 12:49,33,2014/12/1 0:16,85,89,6.8,970,982,2014/12/1 0:05,965,2014/12/1 11:35
2014/12/3 0:00,8.7,70,27.1,2014/12/2 6:00,91,0.3,2.6,2014/12/2 14:17,-3,2014/12/2 23:55,39,58,2014/12/2 21:46,30,2014/12/2 17:51,193,160,11.3,973,981,2014/12/2 23:48,968,2014/12/2 0:03
2014/12/4 0:00,3.9,70,14,2014/12/3 6:34,100,-0.3,2.2,2014/12/3 10:39,-4.1,2014/12/3 2:46,38,69,2014/12/3 23:05,25,2014/12/3 8:08,400,258,17.1,984,986,2014/12/3 23:04,981,2014/12/3 0:00
2014/12/5 0:00,3.4,261,7.6,2014/12/4 23:54,59,-2,0,2014/12/4 17:07,-5.2,2014/12/4 3:42,51,72,2014/12/4 7:09,34,2014/12/4 23:59,404,249,16.9,981,986,2014/12/4 0:00,976,2014/12/4 23:32
2014/12/6 0:00,8.4,64,28.2,2014/12/5 18:42,81,-0.4,2.2,2014/12/5 11:45,-5,2014/12/5 4:10,38,58,2014/12/5 4:10,24,2014/12/5 12:20,196,128,9.5,966,976,2014/12/5 0:01,958,2014/12/5 18:59
2014/12/7 0:00,13.6,74,28.7,2014/12/6 15:40,98,1.2,2.6,2014/12/6 15:36,-0.5,2014/12/6 4:06,40,50,2014/12/6 0:22,32,2014/12/6 19:46,137,121,7.9,963,966,2014/12/6 23:23,961,2014/12/6 0:02
2014/12/8 0:00,5.8,67,22.5,2014/12/7 4:04,92,0.7,3.2,2014/12/7 14:26,-2.1,2014/12/7 23:30,45,83,2014/12/7 23:32,29,2014/12/7 13:34,150,129,9.1,969,974,2014/12/7 23:49,966,2014/12/7 0:00
2014/12/9 0:00,2.3,351,7.4,2014/12/8 15:02,316,-0.9,1.6,2014/12/8 14:05,-2.5,2014/12/8 22:00,59,81,2014/12/8 22:20,38,2014/12/8 14:59,331,236,15.6,978,981,2014/12/8 23:55,974,2014/12/8 0:00
2014/12/10 0:00,2.7,358,7.4,2014/12/9 8:53,45,-3.7,-0.9,2014/12/9 16:58,-6.7,2014/12/9 7:57,78,89,2014/12/9 10:03,60,2014/12/9 21:14,367,244,16.6,983,984,2014/12/9 14:29,981,2014/12/9 0:00
2014/12/11 0:00,3.7,39,11.3,2014/12/10 16:35,85,-0.4,5.2,2014/12/10 16:46,-4.5,2014/12/10 1:03,46,79,2014/12/10 0:42,23,2014/12/10 21:48,363,239,16.4,974,983,2014/12/10 0:00,966,2014/12/10 19:58
2014/12/12 0:00,3.3,27,10.6,2014/12/11 1:40,93,0.9,4.7,2014/12/11 14:47,-3.9,2014/12/11 2:34,43,70,2014/12/11 23:44,25,2014/12/11 0:48,250,183,13.2,973,977,2014/12/11 23:59,968,2014/12/11 0:01
2014/12/13 0:00,3.3,263,12,2014/12/12 8:54,41,0.2,2,2014/12/12 11:32,-1.6,2014/12/12 6:17,63,88,2014/12/12 15:21,40,2014/12/12 0:24,134,114,8,981,985,2014/12/12 23:19,977,2014/12/12 0:05
2014/12/14 0:00,2.3,238,6.6,2014/12/13 23:36,87,0,1.3,2014/12/13 9:53,-1.4,2014/12/13 0:55,70,90,2014/12/13 17:06,36,2014/12/13 23:39,171,140,9.9,986,988,2014/12/13 14:27,985,2014/12/13 0:00
2014/12/15 0:00,3.2,44,11.5,2014/12/14 18:28,58,2.5,7.2,2014/12/14 14:07,-2.4,2014/12/14 4:15,39,58,2014/12/14 9:06,25,2014/12/14 6:44,395,250,16.8,980,986,2014/12/14 0:00,976,2014/12/14 14:33
2014/12/16 0:00,3.6,30,12.7,2014/12/15 5:52,87,1.8,3.6,2014/12/15 11:49,-0.9,2014/12/15 3:36,38,69,2014/12/15 22:04,25,2014/12/15 7:46,340,225,15.3,984,987,2014/12/16 0:00,981,2014/12/15 0:00
2014/12/17 0:00,5,64,12,2014/12/16 5:49,80,1.4,3.2,2014/12/16 10:50,-0.9,2014/12/16 22:16,37,64,2014/12/16 0:01,27,2014/12/16 8:10,402,259,16.8,987,989,2014/12/16 8:47,986,2014/12/16 22:29
2014/12/18 0:00,5.1,52,15.2,2014/12/17 4:16,75,1.2,4.8,2014/12/17 16:46,-1.5,2014/12/17 3:06,34,58,2014/12/17 21:12,22,2014/12/17 15:32,412,254,17,983,986,2014/12/17 0:34,979,2014/12/17 18:59
2014/12/19 0:00,4.5,51,13.2,2014/12/18 7:26,56,1.2,4,2014/12/18 12:18,-2.1,2014/12/18 3:14,40,57,2014/12/18 19:41,29,2014/12/18 10:00,309,217,14.9,981,981,2014/12/18 3:48,980,2014/12/18 0:02
2014/12/20 0:00,3.8,47,9.5,2014/12/19 7:03,67,2.5,6.3,2014/12/19 15:11,-0.6,2014/12/19 4:38,39,71,2014/12/19 22:27,29,2014/12/19 15:12,396,246,16.5,982,984,2014/12/19 23:55,981,2014/12/19 0:09
2014/12/21 0:00,3.5,27,9,2014/12/20 5:03,57,2.9,5.6,2014/12/20 11:43,0.1,2014/12/20 23:55,45,69,2014/12/20 22:40,34,2014/12/20 11:44,302,206,14.1,986,987,2014/12/20 11:26,984,2014/12/20 0:00
2014/12/22 0:00,3.8,43,11.2,2014/12/21 6:27,77,4,8,2014/12/21 13:14,-0.8,2014/12/21 3:13,44,65,2014/12/21 3:13,28,2014/12/21 6:37,365,238,16,984,986,2014/12/21 0:00,982,2014/12/21 18:09
2014/12/23 0:00,5,53,15.7,2014/12/22 8:37,90,4.3,7.9,2014/12/22 12:11,-1.9,2014/12/22 3:33,37,70,2014/12/22 0:50,19,2014/12/22 9:18,412,252,16.9,980,983,2014/12/22 0:00,978,2014/12/22 14:51
2014/12/24 0:00,8.7,91,21.2,2014/12/23 4:59,98,6.8,11.2,2014/12/23 15:23,3.7,2014/12/23 5:45,31,39,2014/12/23 2:34,22,2014/12/23 13:35,363,238,15.9,980,981,2014/12/23 9:53,978,2014/12/23 20:51
2014/12/25 0:00,7.6,78,19.4,2014/12/24 13:32,96,4.8,7.7,2014/12/24 14:02,-0.2,2014/12/24 23:38,32,69,2014/12/24 22:32,24,2014/12/24 10:45,328,228,15.8,980,983,2014/12/24 23:44,979,2014/12/24 0:01
2014/12/26 0:00,3.2,259,8.7,2014/12/25 4:25,101,2,4.3,2014/12/25 15:47,-1.4,2014/12/25 4:59,44,72,2014/12/25 23:37,31,2014/12/25 8:35,386,248,16.6,983,984,2014/12/25 23:59,983,2014/12/25 0:00
2014/12/27 0:00,3.4,306,8.2,2014/12/26 6:58,61,1.8,5.4,2014/12/26 20:34,-3.5,2014/12/26 2:51,47,72,2014/12/26 2:51,31,2014/12/26 20:51,407,257,17,983,984,2014/12/26 1:09,981,2014/12/26 19:56
2014/12/28 0:00,3.4,14,10.6,2014/12/27 1:33,62,1.6,4.9,2014/12/27 12:31,-2.4,2014/12/27 23:41,53,91,2014/12/27 22:53,34,2014/12/27 15:44,362,242,16.1,982,983,2014/12/27 7:24,982,2014/12/27 19:16
2014/12/29 0:00,2.7,255,5.9,2014/12/28 12:30,262,-1.6,0,2014/12/28 11:15,-2.9,2014/12/28 6:44,80,90,2014/12/28 6:58,68,2014/12/28 15:02,249,173,11.2,984,986,2014/12/28 23:42,983,2014/12/28 0:00
2014/12/30 0:00,3,247,5.2,2014/12/29 15:11,244,-2,-0.9,2014/12/29 13:58,-2.9,2014/12/29 1:50,75,87,2014/12/29 2:24,65,2014/12/29 14:10,152,117,8.2,986,986,2014/12/29 5:28,985,2014/12/29 18:05
2014/12/31 0:00,2.6,278,7.9,2014/12/30 14:44,238,-0.8,1.6,2014/12/30 15:06,-3,2014/12/30 4:33,62,83,2014/12/30 22:11,42,2014/12/30 9:58,386,236,15.5,985,986,2014/12/30 5:48,984,2014/12/30 17:50
2015/1/1 0:00,2.6,293,7.9,2014/12/31 6:53,99,1.5,5.1,2014/12/31 14:11,-1.7,2014/12/31 0:44,46,73,2014/12/31 0:47,30,2014/12/31 14:18,291,221,14.3,987,987,2014/12/31 4:59,986,2014/12/31 18:38
2015/1/2 0:00,1.8,359,6.5,2015/1/1 16:46,256,1.3,4.3,2015/1/1 12:31,-2.4,2015/1/1 23:04,55,89,2015/1/1 23:16,36,2015/1/1 13:13,368,249,16.3,986,987,2015/1/1 4:45,985,2015/1/1 19:23
2015/1/3 0:00,2.7,251,7.6,2015/1/2 16:22,225,-0.7,2,2015/1/2 17:54,-4,2015/1/2 1:48,74,92,2015/1/2 2:01,46,2015/1/2 16:23,374,246,16.7,983,986,2015/1/2 0:55,981,2015/1/2 20:29
2015/1/4 0:00,2.9,246,7.4,2015/1/3 11:12,228,1,3.6,2015/1/3 14:09,-2.6,2015/1/3 2:55,49,72,2015/1/3 0:40,32,2015/1/3 14:12,366,242,16.2,988,993,2015/1/3 23:46,982,2015/1/3 0:01
2015/1/5 0:00,2.5,283,6.2,2015/1/4 13:28,234,0.3,3.3,2015/1/4 13:17,-3.3,2015/1/4 3:15,65,87,2015/1/4 2:20,44,2015/1/4 16:34,397,251,16.6,997,999,2015/1/4 12:48,993,2015/1/4 0:00
2015/1/6 0:00,2.6,3,7.9,2015/1/5 14:23,214,0.7,3.3,2015/1/5 21:12,-3.7,2015/1/5 3:44,44,85,2015/1/5 0:51,23,2015/1/5 16:16,404,249,16.4,992,997,2015/1/5 0:00,989,2015/1/5 20:17
2015/1/7 0:00,3.4,255,8.6,2015/1/6 1:56,63,-0.3,2.2,2015/1/6 17:34,-3.2,2015/1/6 6:00,54,72,2015/1/6 8:52,37,2015/1/6 5:36,321,227,15,992,993,2015/1/7 0:00,990,2015/1/6 0:00
2015/1/8 0:00,2.3,280,7.7,2015/1/7 15:08,314,0,2.8,2015/1/7 15:12,-4.2,2015/1/7 23:41,67,94,2015/1/7 23:47,45,2015/1/7 13:03,370,253,16.2,994,995,2015/1/7 14:12,993,2015/1/7 0:00
2015/1/9 0:00,2.1,324,5.3,2015/1/8 18:17,223,-2.6,0.7,2015/1/8 18:02,-6.7,2015/1/8 3:48,82,98,2015/1/8 4:00,61,2015/1/8 18:03,302,205,12.8,987,994,2015/1/8 0:00,980,2015/1/8 23:54
2015/1/10 0:00,2.5,3,6.5,2015/1/9 13:30,262,-3.3,-0.9,2015/1/9 11:23,-5.5,2015/1/9 4:17,79,92,2015/1/9 1:29,63,2015/1/9 19:50,224,147,10.4,979,980,2015/1/9 0:00,978,2015/1/9 13:10
2015/1/11 0:00,2,265,6.2,2015/1/10 9:58,220,-2.7,0.2,2015/1/10 17:47,-5.6,2015/1/10 23:42,67,90,2015/1/10 13:08,42,2015/1/10 17:20,203,159,10.1,982,985,2015/1/10 23:33,980,2015/1/10 0:00
2015/1/12 0:00,2.2,284,6.4,2015/1/11 14:45,232,-2.9,-0.2,2015/1/11 22:18,-6.7,2015/1/11 3:34,55,68,2015/1/11 23:52,36,2015/1/11 7:28,253,156,10.9,990,993,2015/1/11 23:31,985,2015/1/11 0:00
2015/1/13 0:00,2.5,265,7.9,2015/1/12 16:05,215,1.5,4.3,2015/1/12 16:28,-1.9,2015/1/12 0:18,44,72,2015/1/12 0:25,27,2015/1/12 16:00,341,243,15.5,990,994,2015/1/12 2:57,984,2015/1/12 23:37
2015/1/14 0:00,3.9,261,10.5,2015/1/13 6:05,62,0.7,2.5,2015/1/13 13:06,-2.9,2015/1/13 1:41,38,58,2015/1/13 1:41,27,2015/1/13 6:33,NAN,395,NAN,986,990,2015/1/13 23:55,984,2015/1/13 2:09
2015/1/15 0:00,3.1,355,7.1,2015/1/14 7:30,57,0.4,3.8,2015/1/14 19:33,-4.9,2015/1/14 4:14,46,74,2015/1/14 3:31,23,2015/1/14 17:29,361,623,15.6,991,992,2015/1/14 23:50,989,2015/1/14 0:03
2015/1/16 0:00,3.2,281,9,2015/1/15 2:24,68,0.6,3,2015/1/15 14:26,-3,2015/1/15 1:21,49,74,2015/1/15 23:59,32,2015/1/15 0:21,351,613,15.4,997,1000,2015/1/15 23:50,992,2015/1/15 0:00
2015/1/17 0:00,6,47,38.6,2015/1/16 23:50,94,0.9,5.3,2015/1/16 18:38,-4.3,2015/1/16 4:53,49,76,2015/1/17 0:00,26,2015/1/16 18:44,275,516,13.1,997,1002,2015/1/16 11:00,977,2015/1/16 23:59
2015/1/18 0:00,16.8,59,49.6,2015/1/17 0:48,117,2.3,4.6,2015/1/17 10:57,-0.1,2015/1/17 23:59,73,93,2015/1/18 0:00,51,2015/1/17 10:58,128,270,6.4,978,989,2015/1/17 23:51,970,2015/1/17 4:28
2015/1/19 0:00,4.9,25,15.6,2015/1/18 6:44,0,-0.4,0.4,2015/1/18 13:39,-1.4,2015/1/18 23:10,96,99,2015/1/18 4:46,89,2015/1/18 13:50,86,208,5,998,1003,2015/1/18 23:03,989,2015/1/18 0:00
2015/1/20 0:00,2.1,312,6.3,2015/1/19 17:41,228,-0.7,1.3,2015/1/19 13:10,-3.1,2015/1/19 22:21,86,96,2015/1/19 0:01,73,2015/1/19 13:07,259,469,11.2,998,1003,2015/1/19 0:26,989,2015/1/20 0:00
2015/1/21 0:00,2.5,17,7.8,2015/1/20 22:07,226,-3.8,-1.3,2015/1/20 17:20,-7.5,2015/1/20 5:31,75,96,2015/1/20 2:21,48,2015/1/20 7:21,355,593,13.5,984,989,2015/1/20 0:00,982,2015/1/20 14:49
2015/1/22 0:00,2.4,252,7.1,2015/1/21 0:10,227,-1,1.6,2015/1/21 18:34,-4.4,2015/1/21 1:42,59,86,2015/1/21 0:27,39,2015/1/21 9:37,226,453,10.6,985,989,2015/1/21 23:44,983,2015/1/21 0:00
2015/1/23 0:00,2.6,234,6.7,2015/1/22 16:21,226,-0.1,1.6,2015/1/22 10:53,-1.1,2015/1/22 19:59,80,94,2015/1/22 15:04,63,2015/1/22 3:49,165,345,8.2,990,991,2015/1/22 12:13,988,2015/1/22 21:41
2015/1/24 0:00,3.3,311,9.5,2015/1/23 6:45,79,-0.3,2.7,2015/1/23 20:01,-4.9,2015/1/23 23:27,49,75,2015/1/23 1:10,32,2015/1/23 9:21,308,553,12.8,983,988,2015/1/23 0:15,978,2015/1/23 23:55
2015/1/25 0:00,4.2,35,11.3,2015/1/24 3:52,34,-0.3,3.2,2015/1/24 20:28,-4.8,2015/1/24 1:06,39,62,2015/1/24 7:17,25,2015/1/24 14:19,336,571,13,978,981,2015/1/25 0:00,977,2015/1/24 12:17
2015/1/26 0:00,3.3,7,9.3,2015/1/25 0:14,54,0.3,3.6,2015/1/25 11:58,-4,2015/1/26 0:00,47,74,2015/1/25 21:35,32,2015/1/25 9:23,310,539,12.6,984,985,2015/1/26 0:00,981,2015/1/25 0:04
2015/1/27 0:00,2.5,284,6,2015/1/26 12:52,247,-2.2,1.1,2015/1/26 14:50,-6,2015/1/26 2:47,54,77,2015/1/26 23:07,38,2015/1/26 14:02,325,554,12.6,988,990,2015/1/26 16:40,985,2015/1/26 0:01
2015/1/28 0:00,2.8,267,7.9,2015/1/27 13:55,238,-0.9,3.2,2015/1/27 21:07,-5.1,2015/1/27 1:18,50,70,2015/1/27 0:56,37,2015/1/27 16:38,323,548,12.4,986,989,2015/1/27 0:00,983,2015/1/27 20:38
2015/1/29 0:00,2,339,6.9,2015/1/28 0:12,46,0.1,3.4,2015/1/28 13:33,-3.7,2015/1/28 0:59,61,86,2015/1/28 23:59,39,2015/1/28 8:44,246,461,11,985,987,2015/1/28 23:44,984,2015/1/28 7:33
2015/1/30 0:00,2.2,360,5.2,2015/1/29 18:22,42,-2.5,1.1,2015/1/29 15:30,-5.5,2015/1/29 2:07,79,91,2015/1/29 2:38,61,2015/1/29 13:10,307,532,12.3,989,990,2015/1/29 15:49,987,2015/1/29 0:00
2015/1/31 0:00,2.2,10,5.1,2015/1/30 14:50,252,-4.3,-1.3,2015/1/30 17:19,-7.4,2015/1/30 7:14,83,94,2015/1/30 3:28,67,2015/1/30 17:19,306,518,12.6,990,994,2015/1/30 23:56,988,2015/1/30 7:51
2015/2/1 0:00,2.2,290,8.6,2015/1/31 13:15,232,-2.3,1,2015/1/31 17:10,-5.6,2015/1/31 3:34,63,82,2015/1/31 22:14,45,2015/1/31 17:12,271,487,11.2,992,995,2015/1/31 3:16,985,2015/1/31 23:58
2015/2/2 0:00,1.4,345,4.6,2015/2/1 0:47,236,0.3,4.3,2015/2/1 13:42,-3,2015/2/1 4:53,62,86,2015/2/2 0:00,37,2015/2/1 13:26,194,377,9.5,982,985,2015/2/1 0:00,980,2015/2/1 11:34
2015/2/3 0:00,2.6,10,6.4,2015/2/2 23:21,71,-0.9,1,2015/2/2 19:13,-3.2,2015/2/2 4:36,74,91,2015/2/2 0:47,51,2015/2/3 0:00,195,373,9.1,986,988,2015/2/2 10:38,983,2015/2/2 23:48
2015/2/4 0:00,2.7,314,8.1,2015/2/3 15:28,227,-0.7,2.2,2015/2/3 16:36,-4.4,2015/2/3 5:08,49,69,2015/2/3 22:00,35,2015/2/3 15:02,294,502,11.4,981,985,2015/2/4 0:00,980,2015/2/3 8:38
2015/2/5 0:00,3.1,2,7.1,2015/2/4 1:34,72,-2.5,-0.4,2015/2/4 11:27,-6.1,2015/2/4 2:31,48,72,2015/2/4 2:32,34,2015/2/4 8:27,295,493,11.2,989,990,2015/2/4 23:36,985,2015/2/4 0:03
2015/2/6 0:00,3.4,282,7.5,2015/2/5 13:28,227,-4,-2,2015/2/5 15:18,-7.5,2015/2/5 3:40,44,70,2015/2/5 23:40,31,2015/2/5 7:28,297,487,11.1,989,991,2015/2/5 5:21,987,2015/2/5 22:44
2015/2/7 0:00,1.9,17,5.9,2015/2/6 10:24,216,-5.4,-1.9,2015/2/6 12:47,-8.4,2015/2/6 6:40,60,80,2015/2/6 22:24,34,2015/2/6 12:50,283,472,10.8,988,991,2015/2/6 23:57,986,2015/2/6 7:00
2015/2/8 0:00,2.9,241,5.9,2015/2/7 5:31,221,-2.5,-0.1,2015/2/7 15:41,-6.2,2015/2/7 0:01,66,92,2015/2/8 0:00,41,2015/2/7 4:54,191,360,8.4,995,998,2015/2/7 20:02,991,2015/2/7 0:59
2015/2/9 0:00,2.1,242,5.7,2015/2/8 14:02,234,-2,-0.9,2015/2/8 16:52,-3.5,2015/2/8 4:10,92,98,2015/2/8 5:56,85,2015/2/8 16:53,62,131,3.2,995,998,2015/2/8 2:55,985,2015/2/8 23:58
2015/2/10 0:00,2.1,23,6.1,2015/2/9 10:27,75,-5,-1.7,2015/2/9 1:43,-7.3,2015/2/9 22:14,67,95,2015/2/9 0:02,48,2015/2/9 10:31,260,435,10.3,980,985,2015/2/9 0:00,978,2015/2/9 11:51
2015/2/11 0:00,1.9,283,5.6,2015/2/10 2:04,47,-4.6,-2.1,2015/2/10 16:22,-8.5,2015/2/10 6:26,77,90,2015/2/10 6:32,67,2015/2/10 23:40,150,295,7.3,985,987,2015/2/10 11:42,982,2015/2/10 0:00
2015/2/12 0:00,2.5,347,6.2,2015/2/11 9:05,61,-2,1.2,2015/2/11 14:40,-6.5,2015/2/11 0:56,59,85,2015/2/11 1:03,44,2015/2/11 22:21,210,381,9,981,985,2015/2/11 0:00,979,2015/2/11 19:12
2015/2/13 0:00,2.2,31,7,2015/2/12 4:57,56,-2.6,0.1,2015/2/12 16:29,-6,2015/2/12 4:38,59,79,2015/2/12 22:05,40,2015/2/12 9:46,239,415,9.3,980,983,2015/2/12 23:29,979,2015/2/12 6:52
2015/2/14 0:00,3.6,32,10.9,2015/2/13 8:45,41,-4.2,-1.6,2015/2/13 19:14,-5.9,2015/2/13 5:36,49,85,2015/2/13 2:17,31,2015/2/13 11:31,264,431,9.8,983,984,2015/2/13 10:06,982,2015/2/13 20:43
2015/2/15 0:00,3.7,48,11,2015/2/14 23:35,48,-3.2,1.3,2015/2/14 17:20,-6.9,2015/2/14 1:30,36,62,2015/2/14 23:01,25,2015/2/14 12:10,243,411,9.4,984,989,2015/2/14 23:59,982,2015/2/14 3:31
2015/2/16 0:00,3.4,41,9.5,2015/2/15 0:05,46,-2.4,-0.2,2015/2/15 16:13,-5.4,2015/2/15 1:20,46,72,2015/2/15 6:22,36,2015/2/15 9:56,145,276,6.8,992,993,2015/2/15 11:13,989,2015/2/15 0:00
2015/2/17 0:00,2.9,50,7.9,2015/2/16 5:54,62,-3.2,-0.7,2015/2/16 17:08,-7.5,2015/2/16 4:27,47,73,2015/2/16 20:34,32,2015/2/16 8:30,172,317,7.2,986,991,2015/2/16 0:09,981,2015/2/16 23:44
2015/2/18 0:00,2.6,68,8.8,2015/2/17 6:02,53,-2.1,0,2015/2/17 12:09,-3.6,2015/2/17 5:19,64,86,2015/2/17 15:26,46,2015/2/17 9:24,108,220,5.3,977,981,2015/2/17 0:00,976,2015/2/17 18:43
2015/2/19 0:00,3.1,68,7,2015/2/18 8:26,60,-1.9,-0.4,2015/2/18 17:12,-4,2015/2/18 23:57,55,75,2015/2/18 14:01,46,2015/2/18 23:05,175,315,7.7,977,977,2015/2/18 23:40,976,2015/2/18 0:00
2015/2/20 0:00,2,310,7.1,2015/2/19 0:17,57,-2.7,-0.2,2015/2/19 14:19,-5.8,2015/2/19 4:22,62,84,2015/2/19 22:34,48,2015/2/19 0:08,143,266,6.3,979,983,2015/2/19 23:59,977,2015/2/19 0:00
2015/2/21 0:00,2.8,32,7.3,2015/2/20 4:57,57,-1.8,0.7,2015/2/20 15:25,-4,2015/2/20 1:46,61,89,2015/2/20 1:48,42,2015/2/20 13:16,106,206,5,986,987,2015/2/20 14:26,983,2015/2/20 0:04
2015/2/22 0:00,2.4,28,8.6,2015/2/21 1:35,75,-0.9,3,2015/2/21 16:24,-5.3,2015/2/21 5:34,56,92,2015/2/21 23:58,39,2015/2/21 1:42,185,327,7.5,980,986,2015/2/21 0:34,976,2015/2/21 18:03
2015/2/23 0:00,9.1,70,30.7,2015/2/22 23:50,27,0.5,2,2015/2/22 13:28,-2.2,2015/2/22 1:38,54,94,2015/2/22 1:45,42,2015/2/22 17:46,77,170,4.3,973,978,2015/2/22 5:25,956,2015/2/22 23:59
2015/2/24 0:00,14.1,64,41.4,2015/2/23 1:25,85,2,3.5,2015/2/23 10:06,-0.2,2015/2/23 0:43,60,69,2015/2/23 20:04,46,2015/2/23 0:23,81,179,4,957,968,2015/2/23 23:57,950,2015/2/23 6:39
2015/2/25 0:00,7.6,72,19.7,2015/2/24 4:23,67,2.2,3.9,2015/2/24 15:55,-0.2,2015/2/24 23:59,57,81,2015/2/24 20:42,45,2015/2/24 16:09,100,203,4.6,980,986,2015/2/24 20:36,968,2015/2/24 0:00
2015/2/26 0:00,3.3,57,8,2015/2/25 23:10,66,-2.3,0.4,2015/2/25 0:47,-4.8,2015/2/25 23:11,55,79,2015/2/25 0:11,42,2015/2/25 21:30,74,146,3.5,978,986,2015/2/25 0:00,971,2015/2/25 23:06
2015/2/27 0:00,2.3,56,7.3,2015/2/26 4:49,57,-4.3,-3.3,2015/2/26 23:42,-5.4,2015/2/26 3:06,63,86,2015/2/27 0:00,42,2015/2/26 0:24,31,73,1.8,975,982,2015/2/26 23:57,971,2015/2/26 3:53
2015/2/28 0:00,4.5,77,15,2015/2/27 22:12,76,-2.1,-0.1,2015/2/27 12:57,-4,2015/2/27 20:49,66,89,2015/2/27 20:51,48,2015/2/27 22:05,66,138,3.2,982,983,2015/2/27 12:01,980,2015/2/27 22:56
2015/3/1 0:00,8.9,80,25.6,2015/2/28 5:20,108,-0.6,1.5,2015/2/28 23:39,-3.6,2015/2/28 2:39,50,90,2015/2/28 12:39,33,2015/2/28 1:51,34,79,1.9,974,980,2015/2/28 0:00,971,2015/2/28 15:22
2015/3/2 0:00,4.2,86,18.5,2015/3/1 1:32,103,-1.4,1.4,2015/3/1 0:03,-7.3,2015/3/1 23:46,64,87,2015/3/1 23:54,40,2015/3/1 0:19,82,161,4,985,991,2015/3/1 23:51,977,2015/3/1 0:00
2015/3/3 0:00,3.1,50,8.4,2015/3/2 22:55,61,-4.7,-0.6,2015/3/2 13:04,-9.2,2015/3/2 7:26,62,86,2015/3/2 0:01,31,2015/3/2 22:31,137,235,5.6,991,992,2015/3/3 0:00,990,2015/3/2 16:27
2015/3/4 0:00,2.9,28,8.5,2015/3/3 1:41,66,-4.9,-2.5,2015/3/3 11:58,-7.7,2015/3/3 5:07,40,66,2015/3/3 20:47,27,2015/3/3 11:34,160,271,5.9,993,995,2015/3/3 23:53,992,2015/3/3 0:03
2015/3/5 0:00,2.7,29,7.1,2015/3/4 21:27,59,-5.2,-3.1,2015/3/4 11:19,-7.1,2015/3/4 23:11,41,61,2015/3/4 8:39,27,2015/3/4 10:06,146,254,5.7,988,995,2015/3/4 0:00,980,2015/3/4 23:42
2015/3/6 0:00,3.1,59,7.8,2015/3/5 8:54,55,-5.6,-2.3,2015/3/5 14:38,-7.7,2015/3/5 5:08,38,53,2015/3/5 5:02,26,2015/3/5 10:50,155,254,5.7,978,983,2015/3/6 0:00,976,2015/3/5 9:23
2015/3/7 0:00,4.1,66,10.5,2015/3/6 13:21,75,-4.4,-1.3,2015/3/6 16:02,-6.9,2015/3/6 7:05,45,61,2015/3/6 7:06,31,2015/3/6 15:21,71,139,3.3,981,984,2015/3/6 6:03,974,2015/3/6 23:13
2015/3/8 0:00,1.7,65,8.5,2015/3/7 2:50,64,-1.4,1,2015/3/7 14:22,-4,2015/3/7 4:55,57,92,2015/3/8 0:00,39,2015/3/7 13:59,75,150,3.7,978,987,2015/3/7 23:58,974,2015/3/7 1:18
2015/3/9 0:00,3.5,196,24.1,2015/3/8 23:34,74,-1.2,1.6,2015/3/8 21:26,-3.7,2015/3/8 0:43,70,96,2015/3/8 0:52,33,2015/3/8 21:25,48,115,3.2,991,994,2015/3/8 12:20,983,2015/3/8 23:58
2015/3/10 0:00,14.1,70,31.7,2015/3/9 9:28,51,2.1,4,2015/3/9 13:41,-0.8,2015/3/9 2:02,53,62,2015/3/9 5:34,46,2015/3/9 23:01,34,82,2,973,983,2015/3/9 0:00,970,2015/3/9 6:20
2015/3/11 0:00,9.6,70,31.5,2015/3/10 2:09,105,1.1,2.7,2015/3/10 2:47,-2.7,2015/3/10 23:59,46,58,2015/3/10 22:06,32,2015/3/10 21:29,34,80,1.8,982,987,2015/3/10 19:18,975,2015/3/10 1:15
2015/3/12 0:00,3.2,50,10,2015/3/11 21:53,74,-2,0.5,2015/3/11 15:00,-5,2015/3/11 7:28,50,77,2015/3/11 21:15,36,2015/3/11 9:24,136,231,4.9,976,983,2015/3/11 0:00,973,2015/3/11 16:08
2015/3/13 0:00,2.3,39,8.8,2015/3/12 12:02,350,-3.2,-0.9,2015/3/12 16:35,-5.8,2015/3/12 6:35,75,87,2015/3/12 6:33,49,2015/3/12 23:10,88,163,3.5,985,988,2015/3/12 16:46,978,2015/3/12 0:00
2015/3/14 0:00,2.6,68,8.4,2015/3/13 18:35,86,-2.4,-0.9,2015/3/13 17:41,-5.2,2015/3/13 22:52,49,70,2015/3/13 21:40,35,2015/3/13 20:38,46,95,2.4,983,986,2015/3/13 0:00,981,2015/3/13 17:41
2015/3/15 0:00,1.6,43,5.4,2015/3/14 0:06,37,-5,-3.3,2015/3/14 16:13,-6.4,2015/3/14 5:59,62,83,2015/3/14 22:12,46,2015/3/14 0:52,83,153,3.6,986,989,2015/3/14 19:45,981,2015/3/14 0:14
2015/3/16 0:00,1.6,44,7.9,2015/3/15 20:23,65,-3.7,-1.1,2015/3/15 14:35,-6.8,2015/3/15 23:09,51,79,2015/3/15 0:19,25,2015/3/15 20:23,57,114,2.8,980,989,2015/3/15 0:00,972,2015/3/15 23:37
2015/3/17 0:00,2.2,272,6.1,2015/3/16 9:22,33,-9.8,-5.8,2015/3/16 23:30,-14.7,2015/3/16 6:30,68,80,2015/3/16 22:49,33,2015/3/16 0:00,62,114,2.8,978,984,2015/3/16 23:56,972,2015/3/16 1:15
2015/3/18 0:00,2.3,115,7.1,2015/3/17 23:03,75,-6.8,-4.6,2015/3/17 19:06,-10.4,2015/3/17 6:22,69,87,2015/3/17 6:27,48,2015/3/17 21:33,48,94,2.4,982,985,2015/3/17 4:55,979,2015/3/17 23:54
2015/3/19 0:00,2.9,71,8,2015/3/18 17:08,89,-5.5,-3.4,2015/3/18 17:00,-7.4,2015/3/18 5:40,61,90,2015/3/18 22:15,45,2015/3/18 16:49,45,89,2.2,979,979,2015/3/18 23:47,978,2015/3/18 6:41
2015/3/20 0:00,2,43,11.8,2015/3/19 17:10,342,-4.8,-1.1,2015/3/19 13:11,-6.2,2015/3/19 23:54,86,95,2015/3/19 23:47,68,2015/3/19 19:03,27,68,1.3,985,988,2015/3/19 17:24,979,2015/3/19 0:00
2015/3/21 0:00,2.1,227,5.4,2015/3/20 3:13,155,-6.8,-2.2,2015/3/20 12:55,-13.4,2015/3/20 23:54,87,96,2015/3/20 0:28,67,2015/3/20 12:58,58,132,1.8,981,987,2015/3/20 0:00,975,2015/3/20 23:50
2015/3/22 0:00,1.5,32,6.3,2015/3/21 21:24,230,-16.5,-11,2015/3/21 1:25,-22.1,2015/3/21 7:01,86,94,2015/3/21 4:04,79,2015/3/21 11:49,100,174,2.4,974,975,2015/3/21 0:00,973,2015/3/21 20:04
2015/3/23 0:00,1.9,290,7.7,2015/3/22 7:25,55,-9.6,-2.3,2015/3/22 14:10,-14.1,2015/3/22 0:16,64,96,2015/3/22 1:21,36,2015/3/22 14:11,104,168,3.8,975,977,2015/3/22 22:45,973,2015/3/22 3:50
2015/3/24 0:00,2.1,233,7,2015/3/23 0:25,45,-14.8,-8.4,2015/3/23 1:20,-20,2015/3/23 6:06,76,93,2015/3/23 23:17,50,2015/3/23 0:06,90,143,3.8,978,979,2015/3/23 10:46,977,2015/3/23 23:48
2015/3/25 0:00,1,236,5.1,2015/3/24 1:34,246,-18.2,-11.6,2015/3/24 14:56,-22.7,2015/3/24 1:13,84,93,2015/3/24 0:24,71,2015/3/24 15:10,100,161,3.8,971,977,2015/3/24 0:00,966,2015/3/24 23:49
2015/3/26 0:00,1.7,23,7.1,2015/3/25 20:43,68,-13.2,-6.8,2015/3/25 12:30,-17.7,2015/3/25 18:18,58,76,2015/3/25 0:00,43,2015/3/25 12:30,102,156,3.7,965,968,2015/3/25 23:36,964,2015/3/25 5:30
2015/3/27 0:00,1.5,351,5.9,2015/3/26 0:00,65,-14.8,-11.4,2015/3/26 21:44,-18,2015/3/26 10:27,57,74,2015/3/26 13:02,45,2015/3/26 10:05,100,150,3.5,974,978,2015/3/26 23:57,968,2015/3/26 0:00
2015/3/28 0:00,1.2,233,4.7,2015/3/27 14:46,235,-10.3,-5.6,2015/3/27 22:37,-15.1,2015/3/27 6:19,61,79,2015/3/27 23:44,47,2015/3/27 3:23,71,121,3.1,978,980,2015/3/27 11:48,974,2015/3/27 23:50
2015/3/29 0:00,8.6,84,25.8,2015/3/28 11:43,105,-3.2,-1.7,2015/3/28 13:39,-6.9,2015/3/28 1:08,61,91,2015/3/28 23:53,48,2015/3/28 15:33,15,33,0.9,970,974,2015/3/28 23:55,967,2015/3/28 12:22
2015/3/30 0:00,2.7,192,9.4,2015/3/29 8:53,67,-4.4,-2,2015/3/29 11:09,-6,2015/3/29 23:30,81,96,2015/3/29 19:08,54,2015/3/29 10:58,33,71,1.9,979,983,2015/3/29 23:57,974,2015/3/29 0:00
2015/3/31 0:00,0.9,251,4.1,2015/3/30 20:45,224,-5.6,-3.6,2015/3/30 12:59,-6.8,2015/3/30 22:47,89,95,2015/3/30 22:59,72,2015/3/30 12:58,26,58,1,983,984,2015/3/30 8:10,979,2015/3/30 23:53
2015/4/1 0:00,2.5,235,6.1,2015/3/31 14:48,221,-10,-5.8,2015/3/31 0:44,-14.8,2015/3/31 22:34,90,96,2015/3/31 3:46,85,2015/3/31 13:36,15,41,0.7,979,980,2015/3/31 12:51,977,2015/3/31 23:45
2015/4/2 0:00,10.7,87,29.7,2015/4/1 21:33,113,-8.8,-3.1,2015/4/1 22:52,-15.1,2015/4/1 2:44,76,91,2015/4/1 10:24,52,2015/4/1 15:37,35,72,1.7,971,977,2015/4/1 0:03,962,2015/4/1 23:32
2015/4/3 0:00,12.7,75,29.7,2015/4/2 16:58,100,-3.1,-0.6,2015/4/2 5:24,-4.7,2015/4/2 0:53,45,62,2015/4/2 0:06,36,2015/4/2 21:22,20,43,1.1,966,977,2015/4/3 0:00,959,2015/4/2 3:45
2015/4/4 0:00,3.9,75,16.2,2015/4/3 0:26,0,-4.2,-2.1,2015/4/3 14:51,-7.8,2015/4/3 22:58,50,80,2015/4/3 12:43,27,2015/4/3 21:14,27,55,1.4,979,981,2015/4/3 10:06,977,2015/4/3 0:02